www.pogodaiklimat.ru

Погода и климат >> Архив погоды >> Новая Зеландия >> Мокохинау


ПОГОДА на Мокохинау

  • Прогноз погоды на Мокохинау
  • Монитор погоды на Мокохинау

АРХИВ ПОГОДЫ на Мокохинау

Время (UTC), дата Ветер
(напр.,м/с)
 
Видим.   Явления Облачность Т
(С)
Тd
(С)
f
(%)
Тe
(С)
Тes
(С)
Комфортность P
(гПа)
Po
(гПа)
Тmin
(С)
Tmax
(С)
R
(мм)
R24
(мм)
S
(см)
15 18.06 В 6 н/о н/о +12.6 +4.8 59 +10 +10 1022.9 1014.5
18 18.06 В 6 н/о н/о +13.2 +2.7 49 +11 +11 1023.4 1015.0
21 18.06 В 7 н/о н/о +14.4 +3.7 49 +13 +13 1024.7 1016.3
00 19.06 В 8 н/о н/о +15.2 +4.6 49 +13 +13 1024.5 1016.1 +12.3
03 19.06 В 6 н/о н/о +15.0 +5.9 54 +13 +13 1024.0 1015.6
06 19.06 В 8 н/о н/о +14.6 +6.7 59 +12 +12 1024.3 1015.9
09 19.06 СВ 7 н/о н/о +14.5 +5.0 53 +13 +13 1025.2 1016.8
12 19.06 В 9 н/о н/о +14.7 +6.1 56 +12 +12 1024.9 1016.5 +15.4
15 19.06 В 11 н/о н/о +14.6 +6.3 57 +12 +12 1023.5 1015.1
18 19.06 В 11 н/о н/о +14.4 +6.3 58 +12 +12 1023.3 1014.9
21 19.06 В 12 н/о н/о +14.4 +7.6 64 +12 +12 1024.1 1015.7
00 20.06 В 11 н/о н/о +14.8 +8.0 64 +12 +12 1022.6 1014.2 +13.8
03 20.06 СВ 10 н/о н/о +14.4 +11.0 80 +12 +12 1020.4 1012.0
06 20.06 СВ 12 н/о н/о +14.5 +12.3 87 +11 +11 1019.9 1011.5
09 20.06 СВ 13 н/о н/о +14.5 +13.0 91 +11 +11 1019.1 1010.8
12 20.06 СВ 11 н/о н/о +15.7 +13.5 87 +13 +13 1017.8 1009.5 +15.7 3
15 20.06 В 3 н/о н/о +15.8 +14.7 93 +15 +15 1017.4 1009.1
18 20.06 С 4 н/о н/о +16.5 +15.6 94 +16 +16 1016.3 1008.0
21 20.06 СЗ 8 н/о н/о +16.9 +15.9 94 +16 +16 1016.2 1007.9
00 21.06 З 5 н/о н/о +16.3 +14.8 91 +15 +15 1015.7 1007.4 +14.1 3
03 21.06 ЮЗ 3 н/о н/о +15.9 +14.3 90 +16 +16 1014.7 1006.4
06 21.06 ЮВ 4 н/о н/о +14.3 +13.7 96 +13 +13 1014.8 1006.5 4
09 21.06 Ю 7 н/о н/о +12.2 +10.6 90 +9 +9 1014.8 1006.4
12 21.06 Ю 3 н/о н/о +13.2 +10.6 84 +12 +12 1014.2 1005.9 +17.2 6
15 21.06 ЮЗ 5 н/о н/о +12.8 +10.9 88 +11 +11 1013.7 1005.3
18 21.06 Ю 6 н/о н/о +13.2 +10.2 82 +11 +11 1013.3 1005.0
21 21.06 ЮЗ 6 н/о н/о +13.4 +9.9 79 +11 +11 1013.8 1005.5
00 22.06 ЮВ 1 н/о н/о +14.8 +8.3 65 +15 +15 1012.5 1004.2 +11.8 10
03 22.06 З 2 н/о н/о +13.9 +10.2 78 +13 +13 1011.1 1002.8
06 22.06 ЮЗ 3 н/о н/о +13.0 +9.1 77 +12 +12 1011.6 1003.3
09 22.06 СЗ 2 н/о н/о +13.5 +8.5 72 +13 +13 1011.1 1002.8
12 22.06 В 2 н/о н/о +13.7 +8.0 68 +13 +13 1010.3 1002.0 +15.2
15 22.06 СВ 7 н/о н/о +14.5 +8.8 69 +13 +13 1007.7 999.4
18 22.06 СВ 11 н/о н/о +14.3 +11.2 82 +11 +11 1004.1 995.9 1
21 22.06 З 10 н/о н/о +14.4 +10.8 79 +12 +12 1006.2 998.0
00 23.06 З 11 н/о н/о +14.3 +9.5 73 +12 +12 1006.9 998.6 +12.7 3
03 23.06 З 9 н/о н/о +15.4 +9.3 67 +13 +13 1006.6 998.4
06 23.06 З 13 н/о н/о +14.4 +8.0 65 +11 +11 1007.9 999.6 0.2
09 23.06 З 10 н/о н/о +14.3 +8.7 69 +12 +12 1009.6 1001.3
12 23.06 З 11 н/о н/о +13.9 +9.2 73 +11 +11 1010.1 1001.8 +15.7
15 23.06 З 11 н/о н/о +13.8 +9.0 73 +11 +11 1010.2 1001.9
18 23.06 З 9 н/о н/о +13.8 +10.1 78 +11 +11 1010.8 1002.5
21 23.06 З 5 н/о н/о +14.7 +10.4 75 +13 +13 1012.5 1004.2
00 24.06 З 1 н/о н/о +15.6 +11.0 74 +16 +16 1012.9 1004.6 +13.6 0.2
03 24.06 Ю 4 н/о н/о +14.8 +9.5 71 +14 +14 1013.1 1004.8
06 24.06 Ю 5 н/о н/о +13.8 +9.9 77 +12 +12 1015.7 1007.4
09 24.06 ЮВ 7 н/о н/о +13.8 +10.9 83 +11 +11 1018.3 1009.9
12 24.06 ЮВ 9 н/о н/о +14.3 +10.5 78 +12 +12 1020.0 1011.6 +16.1
15 24.06 Ю 6 н/о н/о +11.2 +10.1 93 +8 +8 1021.5 1013.0
18 24.06 В 17 н/о н/о +13.3 +11.9 91 +9 +9 1021.2 1012.8 16
21 24.06 В 17 н/о н/о +14.4 +10.1 75 +11 +11 1023.4 1015.0
00 25.06 В 15 н/о н/о +15.4 +10.0 70 +13 +13 1024.7 1016.3 +11.2 17
03 25.06 В 13 н/о н/о +15.0 +10.1 72 +12 +12 1024.7 1016.3
06 25.06 В 14 н/о н/о +13.6 +10.5 82 +10 +10 1026.2 1017.8
09 25.06 ЮВ 11 н/о н/о +12.6 +10.6 88 +9 +9 1028.5 1020.0
12 25.06 В 9 н/о н/о +14.4 +9.3 71 +12 +12 1028.9 1020.5 +15.9

 

Местоположение метеостанции Мокохинау (Новая Зеландия): широта -35.90 долгота 175.10 высота над уровнем моря 60 м.

В архиве по умолчанию представлена погода на Мокохинау за последнюю неделю. Архивные данные за месяц целиком и за предыдущие месяцы, начиная с января 2011 года, Вы можете получить, выбрав интересующий диапазон дат из раскрывающегося списка и нажав кнопку "Ввод!".


*Определитесь, кто Вы:
робот инопланетянин человек

Внимание! Время в таблицах - всемирное. Для получения местного времени необходимо прибавить поправку, которая равна 12 ч.

Смотрите также архив погоды в соседних городах и на ближайших метеорологических станциях:

Погода в Окленде (Новая Зеландия) (125 км)
Погода на Пуперуа (Новая Зеландия) (132 км)
Погода в Тауранге (Новая Зеландия) (219 км)
Погода в Тахароа (Новая Зеландия) (255 км)
Погода на Мысе Реинга (Новая Зеландия) (274 км)
Погода на Таупо (Новая Зеландия) (326 км)
Погода в Хикс-Бей (Новая Зеландия) (339 км)
Погода в Нью-Плимуте (Новая Зеландия) (355 км)
Погода на Уэйауру (Новая Зеландия) (396 км)
Погода в Гисборне (Новая Зеландия) (398 км)

Пояснения к столбцам:

Ветер - указаны скорость ветра в м/с - средняя за 10 мин, порывы в срок и между сроками (в фигурных скобках) и направление, откуда дует ветер: С - северный, СВ - северо-восточный, В - восточный, ЮВ - юго-восточный, Ю - южный, ЮЗ - юго-западный, З - западный, СЗ - северо-западный.
Видимость - горизонтальная дальность видимости в метрах или километрах. При видимости от 1 до 10 км при отсутствии осадков обычно наблюдается дымка, при ухудшении видимости до 1 км и менее - туман. В сухую погоду видимость может ухудшаться дымом, пылью или мглою.
Явления - указаны атмосферные явления, наблюдавшиеся в срок или в последний час перед сроком; фигурными скобками обозначены явления, наблюдавшиеся между сроками (за 1-3 часа до срока); квадратными скобками обозначены град или гололедные отложения с указанием их диаметра в мм.
Облачность - указаны через наклонную черту общая и нижняя облачность в баллах и высота нижней границы облаков в метрах; квадратными скобками обозначены формы облаков: Ci - перистые, Cs - перисто-слоистые, Cc - перисто-кучевые, Ac - высококучевые, As - высокослоистые, Sc - слоисто-кучевые, Ns - слоисто-дождевые, Cu - кучевые, Cb - кучево-дождевые. Подробнее классификацию облаков см. в Атласе облаков (PDF).
T - Температура воздуха - температура, измеренная на высоте 2 м над землей.
Td - Температура точки росы - температура, при понижении до которой содержащийся в воздухе водяной пар достигнет насыщения.
f - Относительная влажность воздуха - влажноcть воздуха, измеренная на высоте 2 м над землей.
Te - Эффективная температура - температура, которую ощущает одетый по сезону человек в тени. Характеристика душности погоды. При расчете учитывается влияние влажности воздуха и скорости ветра на теплоощущения человека.
Tes - Эффективная температура на солнце - температура, которую ощущает человек, с поправкой на солнечный нагрев. Характеристика знойности погоды. Зависит от высоты солнца над горизонтом, облачности и скорости ветра. Ночью, в пасмурную погоду, а также при ветре 12 м/с и более поправка равна нулю.
P - Атмосферное давление - приведенное к уровню моря атмосферное давление.
Po - Атмосферное давление - измеренное на уровне метеостанции атмосферное давление.
Tmin - Минимальная температура - минимум температуры воздуха на высоте 2 м над землей.
Tmax - Максимальная температура - максимум температуры воздуха на высоте 2 м над землей.
R - Количество осадков - Количество выпавших осадков за период времени, мм. При наведении курсора мыши на число - период времени, за который выпало указанное количество осадков.
R24 - Количество осадков - Количество выпавших осадков за 24 часа, мм.
S - Снежный покров - Высота снежного покрова, см. При наведении курсора мыши на число - состояние снежного покрова и степень покрытия местности в баллах.